Location: Cruquius
(52.3348°N, 4.6319°E)
Time: 21:09:41
(UTC+00:00)

Cosmos 2242 Rocket - Pass Details

Date: 26 September 2021
Orbit: 618 x 651 km, 82.5° (Epoch: 23 October)

Event Time Altitude Azimuth Distance (km) Brightness Sun altitude
Rises 04:06:34 0° 129° (SE) 2,955 7.5 -14.0°
Reaches altitude 10° 04:10:30 10° 95° (E) 2,058 7.4 -13.5°
Maximum altitude 04:11:46 11° 79° (ENE) 1,990 7.6 -13.3°
Drops below altitude 10° 04:13:02 10° 62° (ENE) 2,065 7.6 -13.1°
Sets 04:17:00 0° 28° (NNE) 2,986 7.7 -12.5°
